STARLINK-36845, 68056

Orbit data source: Space-Track

STARLINK-36845, 68056 is a payload satellite owned by SpaceX/Seattle (US) in LEO that was launched on Mon, 02 Mar 2026 UTC via an FALCON 9 launch vehicle from the Air Force Eastern Test Range (AFETR). Payload-class satellites include a variety of spacecraft equipped with specific instruments for various scientific and technological missions. These include communications satellites like Starlink; space stations such as the ISS; scientific satellites like the Hubble; Earth observation satellites from companies like Planet Labs, Umbra, and HawkEye 360; GPS; miniature CubeSats for education and research; and military/defense satellites.

Loading next visibility...
Identifier
68056, 2026-041S
Orbit
LEO
Country
Flag of USUS
Related business
Manufacturer
SpaceX/Seattle
Mission
Operational Commercial Communications
Bus & Motor
STARLINK V2MO, Unknown motor
Mass
575 kg wet, ~530 kg dry
Launch date (UTC)
2026-03-02 (4 months ago)
Launch vehicle
FALCON 9
Launch site
Air Force Eastern Test Range (AFETR)
Object type
Payload
Rocket body
Debris
Shape & HBR
Box + 2 Pan, 17.7 m
Radar Cross Section
36.964 m², Large (>1 m²)

Expand to show TLE details & history
Last TLE update: 1 day ago

TLE from 1 day ago
0 STARLINK-36845
1 68056U 26041S   26170.72781701  .00016166  00000-0  48840-3 0  9994
2 68056  53.1598 293.5810 0001088  98.7792 261.3334 15.34410563 17041
Epoch: 2026-06-19T17:28Z
TLE epoch observation values (Epoch: 2026-06-19T17:28:03.389Z)
Latitude
-0.00002°
Longitude
123.61423°
Altitude
463.685 km
Speed
7.636 km/s
True Right ascension
19h 34m 19s
True Declination
0° 00' 00"
Sunlit
Object was in full shadow at epoch
Visualization orbit readout
Latitude
Unknown
Longitude
Unknown
Altitude
Unknown
Speed
Unknown
Apparent Right ascension
Unknown
Apparent Declination
Unknown
Sunlit
N/A
Visualization observer readout
Local Sidereal Time
07:20:17
Azimuth
Unknown
Elevation
Unknown
Doppler factor
Unknown
Orbital elements
Apogee altitude
463.673 km
Perigee altitude
462.184 km
Semi-major axis
6,841.066 km
Eccentricity
0.00011
Inclination
53.1598°
RAAN
293.581°
Arg. of periapsis
98.7792°
True anomaly
261.32108°
Mean anomaly
261.3334°
Eccentric anomaly
261.32724°
Mean motion
3.83581 °/min
Orbital period
93.85 mins
BSTAR
0.0004884
Loading maneuver chart data...
Computing Atmospheric mass density...
Loading historical data...
Loading historical data...
Loading historical data...
Loading historical data...
Loading historical data...
Loading historical data...
Loading historical data...

Documentation

Showing up to 5 results
|